When you browse on this site, cookies collect data to enhance your experience and personalize the content and advertising you see.
Visit our Privacy Policy to learn more. By continuing to use the site, you agree to this use of cookies and data.
  • In Hungary
  • List of Countries
  • For 7 days
  • Water Temperature
  • Satellite Maps
  • Weather Map
  • News
  • Weather Widgets
  • user-avatar
    Login

    Hourly Weather Kandhla

    Today, 18 July, Thursday

    Time Temperature Precipitation Wind Pressure Humidity
    00:00 +29°C° 0 mm 1 mps 730 mmHg 63%
    01:00 +29°C° 0 mm 1 mps 730 mmHg 63%
    02:00 +29°C° 0 mm 1 mps 730 mmHg 63%
    03:00 +29°C° 0 mm 1 mps 730 mmHg 64%
    04:00 +28°C° 0 mm 1 mps 730 mmHg 64%
    05:00 +28°C° 0 mm 1 mps 730 mmHg 64%
    06:00 +29°C° 0 mm 1 mps 730 mmHg 61%
    07:00 +30°C° 0 mm 1 mps 730 mmHg 59%
    08:00 +31°C° 0 mm 1 mps 731 mmHg 57%
    09:00 +33°C° 0 mm 1 mps 731 mmHg 52%
    10:00 +35°C° 0 mm 1 mps 731 mmHg 46%
    11:00 +36°C° 0 mm 1 mps 731 mmHg 41%
    12:00 +37°C° 0 mm 1 mps 730 mmHg 39%
    13:00 +39°C° 0 mm 1 mps 730 mmHg 37%
    14:00 +40°C° 0 mm 2 mps 729 mmHg 36%
    15:00 +39°C° 0 mm 2 mps 729 mmHg 37%
    16:00 +39°C° 0 mm 2 mps 729 mmHg 39%
    17:00 +39°C° 0 mm 3 mps 728 mmHg 40%
    18:00 +37°C° 0 mm 2 mps 728 mmHg 44%
    19:00 +35°C° 0 mm 1 mps 729 mmHg 48%
    20:00 +33°C° 0 mm 1 mps 729 mmHg 52%
    21:00 +33°C° 0.1 mm 1 mps 729 mmHg 54%
    22:00 +32°C° 0.1 mm 1 mps 729 mmHg 55%
    23:00 +32°C° 0.1 mm 2 mps 729 mmHg 57%

    Tomorrow, 19 July, Friday

    Time Temperature Precipitation Wind Pressure Humidity
    00:00 +31°C° 0 mm 1 mps 729 mmHg 59%
    01:00 +31°C° 0 mm 1 mps 729 mmHg 61%
    02:00 +29°C° 0 mm 0 mps 729 mmHg 62%
    03:00 +29°C° 0.1 mm 0 mps 729 mmHg 64%
    04:00 +30°C° 0.1 mm 1 mps 729 mmHg 65%
    05:00 +30°C° 0.1 mm 1 mps 729 mmHg 67%
    06:00 +31°C° 0 mm 1 mps 730 mmHg 63%
    07:00 +33°C° 0 mm 1 mps 730 mmHg 58%
    08:00 +34°C° 0 mm 1 mps 731 mmHg 54%
    09:00 +36°C° 0 mm 1 mps 731 mmHg 50%
    10:00 +37°C° 0 mm 1 mps 731 mmHg 46%
    11:00 +39°C° 0 mm 2 mps 731 mmHg 42%
    12:00 +40°C° 0 mm 2 mps 731 mmHg 41%
    13:00 +40°C° 0 mm 2 mps 730 mmHg 40%
    14:00 +40°C° 0 mm 2 mps 730 mmHg 39%
    15:00 +39°C° 0.1 mm 2 mps 730 mmHg 42%
    16:00 +38°C° 0.1 mm 3 mps 729 mmHg 45%
    17:00 +38°C° 0.1 mm 3 mps 729 mmHg 48%
    18:00 +37°C° 0.5 mm 3 mps 729 mmHg 51%
    19:00 +36°C° 0.5 mm 2 mps 729 mmHg 54%
    20:00 +34°C° 0.5 mm 2 mps 729 mmHg 57%
    21:00 +33°C° 0.5 mm 1 mps 729 mmHg 58%
    22:00 +33°C° 0.5 mm 1 mps 729 mmHg 59%
    23:00 +31°C° 0.5 mm 0 mps 730 mmHg 60%

    Day after tomorrow, 20 July, Saturday

    Time Temperature Precipitation Wind Pressure Humidity
    00:00 +30°C° 0.1 mm 0 mps 729 mmHg 61%
    01:00 +30°C° 0.1 mm 0 mps 729 mmHg 62%
    02:00 +30°C° 0.1 mm 0 mps 729 mmHg 63%
    03:00 +30°C° 0 mm 0 mps 729 mmHg 64%
    04:00 +29°C° 0 mm 0 mps 729 mmHg 65%
    05:00 +29°C° 0 mm 0 mps 729 mmHg 66%
    06:00 +31°C° 0 mm 0 mps 730 mmHg 61%
    07:00 +34°C° 0 mm 1 mps 730 mmHg 56%
    08:00 +36°C° 0 mm 1 mps 731 mmHg 51%
    09:00 +37°C° 0 mm 1 mps 731 mmHg 48%
    10:00 +39°C° 0 mm 2 mps 731 mmHg 44%
    11:00 +40°C° 0 mm 2 mps 731 mmHg 40%
    12:00 +42°C° 0 mm 3 mps 730 mmHg 39%
    13:00 +42°C° 0 mm 3 mps 730 mmHg 38%
    14:00 +42°C° 0 mm 3 mps 729 mmHg 37%
    15:00 +40°C° 0 mm 3 mps 729 mmHg 39%
    16:00 +40°C° 0 mm 3 mps 729 mmHg 41%
    17:00 +39°C° 0 mm 3 mps 728 mmHg 43%
    18:00 +38°C° 0 mm 2 mps 728 mmHg 45%
    19:00 +37°C° 0 mm 2 mps 728 mmHg 47%
    20:00 +35°C° 0 mm 1 mps 729 mmHg 49%
    21:00 +35°C° 0 mm 1 mps 728 mmHg 50%
    22:00 +35°C° 0 mm 1 mps 728 mmHg 50%
    23:00 +35°C° 0 mm 1 mps 728 mmHg 51%

    21 July, Sunday

    Time Temperature Precipitation Wind Pressure Humidity
    00:00 +34°C° 0 mm 1 mps 728 mmHg 52%
    01:00 +34°C° 0 mm 1 mps 728 mmHg 52%
    02:00 +34°C° 0 mm 1 mps 727 mmHg 53%
    03:00 +33°C° 0 mm 1 mps 727 mmHg 54%
    04:00 +33°C° 0 mm 1 mps 727 mmHg 56%
    05:00 +31°C° 0 mm 0 mps 728 mmHg 57%
    06:00 +32°C° 0.1 mm 0 mps 728 mmHg 53%
    07:00 +34°C° 0.1 mm 0 mps 728 mmHg 50%
    08:00 +35°C° 0.1 mm 0 mps 729 mmHg 47%
    09:00 +40°C° 0 mm 1 mps 729 mmHg 43%
    10:00 +41°C° 0 mm 2 mps 729 mmHg 38%
    11:00 +43°C° 0 mm 3 mps 729 mmHg 34%
    12:00 +44°C° 0 mm 3 mps 728 mmHg 33%
    13:00 +44°C° 0 mm 4 mps 728 mmHg 32%
    14:00 +44°C° 0 mm 4 mps 727 mmHg 31%
    15:00 +44°C° 0 mm 4 mps 727 mmHg 32%
    16:00 +44°C° 0 mm 4 mps 726 mmHg 32%
    17:00 +43°C° 0 mm 3 mps 726 mmHg 33%
    18:00 +42°C° 0 mm 3 mps 726 mmHg 36%
    19:00 +40°C° 0 mm 3 mps 726 mmHg 39%
    20:00 +38°C° 0 mm 2 mps 726 mmHg 42%
    21:00 +38°C° 0 mm 2 mps 726 mmHg 44%
    22:00 +36°C° 0 mm 1 mps 726 mmHg 45%
    23:00 +36°C° 0 mm 1 mps 726 mmHg 47%

    22 July, Monday

    Time Temperature Precipitation Wind Pressure Humidity
    00:00 +35°C° 0 mm 1 mps 726 mmHg 48%
    01:00 +33°C° 0 mm 0 mps 726 mmHg 48%
    02:00 +33°C° 0 mm 0 mps 726 mmHg 49%
    03:00 +33°C° 0 mm 0 mps 726 mmHg 49%
    04:00 +32°C° 0 mm 0 mps 726 mmHg 50%
    05:00 +32°C° 0 mm 0 mps 726 mmHg 50%
    06:00 +33°C° 0 mm 0 mps 726 mmHg 49%
    07:00 +34°C° 0 mm 0 mps 727 mmHg 47%
    08:00 +37°C° 0 mm 1 mps 727 mmHg 45%
    09:00 +39°C° 0 mm 2 mps 727 mmHg 40%
    10:00 +42°C° 0 mm 4 mps 728 mmHg 34%
    11:00 +43°C° 0 mm 5 mps 728 mmHg 28%
    12:00 +45°C° 0 mm 5 mps 727 mmHg 26%
    13:00 +46°C° 0 mm 6 mps 727 mmHg 24%
    14:00 +47°C° 0 mm 6 mps 726 mmHg 23%
    15:00 +46°C° 0 mm 6 mps 725 mmHg 23%
    16:00 +46°C° 0 mm 6 mps 725 mmHg 24%
    17:00 +46°C° 0 mm 6 mps 725 mmHg 24%
    18:00 +43°C° 0 mm 4 mps 725 mmHg 27%
    19:00 +42°C° 0 mm 3 mps 725 mmHg 30%
    20:00 +39°C° 0 mm 2 mps 725 mmHg 33%
    21:00 +38°C° 0 mm 2 mps 725 mmHg 34%
    22:00 +38°C° 0 mm 2 mps 725 mmHg 35%
    23:00 +38°C° 0 mm 2 mps 725 mmHg 36%

    23 July, Tuesday

    Time Temperature Precipitation Wind Pressure Humidity
    00:00 +37°C° 0 mm 2 mps 725 mmHg 37%
    01:00 +36°C° 0 mm 1 mps 725 mmHg 37%
    02:00 +35°C° 0 mm 1 mps 725 mmHg 38%
    03:00 +35°C° 0 mm 1 mps 725 mmHg 38%
    04:00 +35°C° 0 mm 1 mps 725 mmHg 39%
    05:00 +35°C° 0 mm 1 mps 725 mmHg 39%
    06:00 +36°C° 0 mm 1 mps 726 mmHg 39%
    07:00 +37°C° 0 mm 2 mps 726 mmHg 39%
    08:00 +38°C° 0 mm 2 mps 727 mmHg 39%
    09:00 +40°C° 0 mm 3 mps 727 mmHg 36%
    10:00 +42°C° 0 mm 4 mps 727 mmHg 32%
    11:00 +45°C° 0 mm 6 mps 727 mmHg 28%
    12:00 +46°C° 0 mm 5 mps 726 mmHg 26%
    13:00 +46°C° 0 mm 5 mps 726 mmHg 25%
    14:00 +47°C° 0 mm 5 mps 725 mmHg 24%
    15:00 +46°C° 0 mm 5 mps 725 mmHg 25%
    16:00 +45°C° 0 mm 4 mps 724 mmHg 26%
    17:00 +44°C° 0 mm 4 mps 724 mmHg 27%
    18:00 +43°C° 0 mm 3 mps 724 mmHg 29%
    19:00 +42°C° 0 mm 3 mps 724 mmHg 30%
    20:00 +40°C° 0 mm 2 mps 725 mmHg 32%
    21:00 +39°C° 0 mm 2 mps 725 mmHg 35%
    22:00 +38°C° 0 mm 2 mps 725 mmHg 38%
    23:00 +37°C° 0 mm 2 mps 725 mmHg 41%
    Show more